Time,TemperatureF,DewpointF,PressureIn,WindDirection,WindDirectionDegrees,WindSpeedMPH,WindSpeedGustMPH,Humidity,HourlyPrecipIn,Conditions,Clouds,dailyrainin,SoftwareType,DateUTC
2013-03-29 00:00:00,30.3,28.0,29.93,NNW,344,0.0,0.0,91,0.00,CLR,,0.00,WeatherDisplay:10.37,2013-03-29 08:00:00,
2013-03-29 00:05:00,30.3,28.0,29.93,NNW,344,0.0,0.0,91,0.00,CLR,,0.00,WeatherDisplay:10.37,2013-03-29 08:05:00,
2013-03-29 00:10:00,30.3,28.0,29.93,NNW,344,0.0,0.0,91,0.00,CLR,,0.00,WeatherDisplay:10.37,2013-03-29 08:10:00,
2013-03-29 00:15:00,30.4,28.4,29.93,NNW,344,0.0,0.0,92,0.00,CLR,,0.00,WeatherDisplay:10.37,2013-03-29 08:15:00,
2013-03-29 00:20:00,30.4,28.4,29.93,NNW,344,0.0,0.0,92,0.00,CLR,,0.00,WeatherDisplay:10.37,2013-03-29 08:20:00,
2013-03-29 00:25:00,30.5,28.5,29.93,NNW,344,0.0,0.0,92,0.00,CLR,,0.00,WeatherDisplay:10.37,2013-03-29 08:25:00,
2013-03-29 00:30:00,30.6,28.6,29.93,NNW,344,0.0,0.0,92,0.00,CLR,,0.00,WeatherDisplay:10.37,2013-03-29 08:30:00,
2013-03-29 00:35:00,30.6,28.6,29.93,NNW,344,0.0,0.0,92,0.00,CLR,,0.00,WeatherDisplay:10.37,2013-03-29 08:35:00,
2013-03-29 00:40:00,30.8,28.8,29.93,NNW,344,0.0,0.0,92,0.00,CLR,,0.00,WeatherDisplay:10.37,2013-03-29 08:40:00,
2013-03-29 00:45:00,30.8,28.8,29.92,NNW,344,0.0,0.0,92,0.00,CLR,,0.00,WeatherDisplay:10.37,2013-03-29 08:45:00,
2013-03-29 00:50:00,30.9,28.9,29.92,NNW,344,0.0,0.0,92,0.00,CLR,,0.00,WeatherDisplay:10.37,2013-03-29 08:50:00,
2013-03-29 00:55:00,31.0,28.7,29.92,NNW,344,0.0,0.0,91,0.00,CLR,,0.00,WeatherDisplay:10.37,2013-03-29 08:55:00,
2013-03-29 01:00:00,31.0,28.7,29.92,NNW,344,0.0,0.0,91,0.00,CLR,,0.00,WeatherDisplay:10.37,2013-03-29 09:00:00,
2013-03-29 01:05:00,31.0,28.9,29.92,NNW,344,0.0,0.0,92,0.00,CLR,,0.00,WeatherDisplay:10.37,2013-03-29 09:05:00,
2013-03-29 01:10:00,31.0,28.9,29.92,NNW,344,0.0,0.0,92,0.00,CLR,,0.00,WeatherDisplay:10.37,2013-03-29 09:10:00,
2013-03-29 01:15:00,31.0,28.9,29.92,NNW,344,0.0,0.0,92,0.00,CLR,,0.00,WeatherDisplay:10.37,2013-03-29 09:15:00,
2013-03-29 01:20:00,31.0,28.9,29.92,NNW,344,0.0,0.0,92,0.00,CLR,,0.00,WeatherDisplay:10.37,2013-03-29 09:20:00,
2013-03-29 01:25:00,31.0,28.9,29.91,NNW,344,0.0,0.0,92,0.00,CLR,,0.00,WeatherDisplay:10.37,2013-03-29 09:25:00,
2013-03-29 01:30:00,31.0,28.9,29.92,NNW,344,0.0,0.0,92,0.00,CLR,,0.00,WeatherDisplay:10.37,2013-03-29 09:30:00,
2013-03-29 01:35:00,31.0,29.2,29.91,NNW,344,0.0,0.0,93,0.00,CLR,,0.00,WeatherDisplay:10.37,2013-03-29 09:35:00,
2013-03-29 01:40:00,31.1,29.3,29.92,NNW,344,0.0,0.0,93,0.00,CLR,,0.00,WeatherDisplay:10.37,2013-03-29 09:40:00,
2013-03-29 01:45:00,31.1,29.3,29.92,NNW,344,0.0,0.0,93,0.00,CLR,,0.00,WeatherDisplay:10.37,2013-03-29 09:45:00,
2013-03-29 01:50:00,31.1,29.3,29.91,NNW,344,0.0,0.0,93,0.00,CLR,,0.00,WeatherDisplay:10.37,2013-03-29 09:50:00,
2013-03-29 01:55:00,31.2,29.4,29.91,NNW,344,0.0,0.0,93,0.00,CLR,,0.00,WeatherDisplay:10.37,2013-03-29 09:55:00,
2013-03-29 02:00:00,31.2,29.4,29.91,NNW,344,0.0,0.0,93,0.00,CLR,,0.00,WeatherDisplay:10.37,2013-03-29 10:00:00,
2013-03-29 02:05:00,31.2,29.4,29.91,NNW,344,0.0,0.0,93,0.00,CLR,,0.00,WeatherDisplay:10.37,2013-03-29 10:05:00,
2013-03-29 02:10:00,31.2,29.4,29.91,NNW,344,0.0,0.0,93,0.00,CLR,,0.00,WeatherDisplay:10.37,2013-03-29 10:10:00,
2013-03-29 02:15:00,31.3,29.5,29.91,NNW,345,0.0,0.0,93,0.00,CLR,,0.00,WeatherDisplay:10.37,2013-03-29 10:15:00,
2013-03-29 02:20:00,31.3,29.5,29.91,NNW,345,0.0,0.0,93,0.00,CLR,,0.00,WeatherDisplay:10.37,2013-03-29 10:20:00,
2013-03-29 02:25:00,31.3,29.8,29.91,NNW,344,0.0,0.0,94,0.00,CLR,,0.00,WeatherDisplay:10.37,2013-03-29 10:25:00,
2013-03-29 02:30:00,31.4,29.9,29.91,NNW,344,0.0,0.0,94,0.00,CLR,,0.00,WeatherDisplay:10.37,2013-03-29 10:30:00,
2013-03-29 02:35:00,31.5,30.0,29.91,NNW,345,0.0,0.0,94,0.00,CLR,,0.00,WeatherDisplay:10.37,2013-03-29 10:35:00,
2013-03-29 02:40:00,31.5,30.0,29.91,NNW,345,0.0,0.0,94,0.00,CLR,,0.00,WeatherDisplay:10.37,2013-03-29 10:40:00,
2013-03-29 02:45:00,31.6,30.1,29.91,NNW,345,0.0,0.0,94,0.00,CLR,,0.00,WeatherDisplay:10.37,2013-03-29 10:45:00,
2013-03-29 02:50:00,31.6,30.1,29.90,NNW,344,0.0,0.0,94,0.00,CLR,,0.00,WeatherDisplay:10.37,2013-03-29 10:50:00,
2013-03-29 02:55:00,31.6,30.1,29.91,NNW,345,0.0,0.0,94,0.00,CLR,,0.00,WeatherDisplay:10.37,2013-03-29 10:55:00,
2013-03-29 03:00:00,31.6,30.1,29.91,NNW,345,0.0,0.0,94,0.00,CLR,,0.00,WeatherDisplay:10.37,2013-03-29 11:00:00,
2013-03-29 03:05:00,31.6,30.1,29.90,NNW,345,0.0,0.0,94,0.00,CLR,,0.00,WeatherDisplay:10.37,2013-03-29 11:05:00,
2013-03-29 03:10:00,31.6,30.1,29.90,NNW,345,0.0,0.0,94,0.00,CLR,,0.00,WeatherDisplay:10.37,2013-03-29 11:10:00,
2013-03-29 03:15:00,31.6,30.1,29.90,NNW,345,0.0,0.0,94,0.00,CLR,,0.00,WeatherDisplay:10.37,2013-03-29 11:15:00,
2013-03-29 03:20:00,31.6,30.1,29.90,NNW,345,0.0,0.0,94,0.00,CLR,,0.00,WeatherDisplay:10.37,2013-03-29 11:20:00,
2013-03-29 03:25:00,31.6,30.1,29.89,NNW,345,0.0,0.0,94,0.00,CLR,,0.00,WeatherDisplay:10.37,2013-03-29 11:25:00,
2013-03-29 03:30:00,31.6,30.1,29.89,NNW,345,0.0,0.0,94,0.00,CLR,,0.00,WeatherDisplay:10.37,2013-03-29 11:30:00,
2013-03-29 03:35:00,31.6,30.1,29.89,NNW,346,0.0,0.0,94,0.00,CLR,,0.00,WeatherDisplay:10.37,2013-03-29 11:35:00,
2013-03-29 03:40:00,31.7,30.2,29.89,NNW,346,0.0,0.0,94,0.00,CLR,,0.00,WeatherDisplay:10.37,2013-03-29 11:40:00,
2013-03-29 03:45:00,31.7,30.2,29.89,NNW,345,0.0,0.0,94,0.00,CLR,,0.00,WeatherDisplay:10.37,2013-03-29 11:45:00,
2013-03-29 03:50:00,31.8,30.3,29.89,NNW,345,0.0,0.0,94,0.00,CLR,,0.00,WeatherDisplay:10.37,2013-03-29 11:50:00,
2013-03-29 03:55:00,31.9,30.4,29.89,NNW,346,0.0,0.0,94,0.00,CLR,,0.00,WeatherDisplay:10.37,2013-03-29 11:55:00,
2013-03-29 04:00:00,32.0,30.5,29.89,NNW,346,0.0,0.0,94,0.00,CLR,,0.00,WeatherDisplay:10.37,2013-03-29 12:00:00,
2013-03-29 04:05:00,32.1,30.3,29.89,NNW,345,0.0,0.0,93,0.00,CLR,,0.00,WeatherDisplay:10.37,2013-03-29 12:05:00,
2013-03-29 04:10:00,32.1,30.3,29.89,NNW,346,0.0,0.0,93,0.00,CLR,,0.00,WeatherDisplay:10.37,2013-03-29 12:10:00,
2013-03-29 04:15:00,32.1,30.3,29.89,NNW,346,0.0,0.0,93,0.00,CLR,,0.00,WeatherDisplay:10.37,2013-03-29 12:15:00,
2013-03-29 04:20:00,32.1,30.3,29.89,NNW,345,0.0,0.0,93,0.00,CLR,,0.00,WeatherDisplay:10.37,2013-03-29 12:20:00,
2013-03-29 04:25:00,32.1,30.3,29.88,NNW,346,0.0,0.0,93,0.00,CLR,,0.00,WeatherDisplay:10.37,2013-03-29 12:25:00,
2013-03-29 04:30:00,32.1,30.3,29.88,NNW,346,0.0,0.0,93,0.00,CLR,,0.00,WeatherDisplay:10.37,2013-03-29 12:30:00,
2013-03-29 04:35:00,32.1,30.3,29.88,NNW,346,0.0,0.0,93,0.00,CLR,,0.00,WeatherDisplay:10.37,2013-03-29 12:35:00,
2013-03-29 04:40:00,32.1,30.3,29.88,NNW,346,0.0,0.0,93,0.00,CLR,,0.00,WeatherDisplay:10.37,2013-03-29 12:40:00,
2013-03-29 04:45:00,32.0,30.2,29.88,NNW,345,0.0,0.0,93,0.00,CLR,,0.00,WeatherDisplay:10.37,2013-03-29 12:45:00,
2013-03-29 04:50:00,32.0,30.2,29.88,NNW,346,0.0,0.0,93,0.00,CLR,,0.00,WeatherDisplay:10.37,2013-03-29 12:50:00,
2013-03-29 04:55:00,32.0,30.2,29.87,NNW,346,0.0,0.0,93,0.00,CLR,,0.00,WeatherDisplay:10.37,2013-03-29 12:55:00,
2013-03-29 05:00:00,32.0,30.2,29.87,NNW,345,0.0,0.0,93,0.00,CLR,,0.00,WeatherDisplay:10.37,2013-03-29 13:00:00,
2013-03-29 05:05:00,32.0,30.2,29.87,NNW,345,0.0,0.0,93,0.00,CLR,,0.00,WeatherDisplay:10.37,2013-03-29 13:05:00,
2013-03-29 05:10:00,32.1,30.3,29.87,NNW,346,0.0,0.0,93,0.00,CLR,,0.00,WeatherDisplay:10.37,2013-03-29 13:10:00,
2013-03-29 05:15:00,32.1,30.3,29.87,NNW,345,0.0,0.0,93,0.00,CLR,,0.00,WeatherDisplay:10.37,2013-03-29 13:15:00,
2013-03-29 05:20:00,32.2,30.4,29.86,NNW,345,0.0,0.0,93,0.00,CLR,,0.00,WeatherDisplay:10.37,2013-03-29 13:20:00,
2013-03-29 05:25:00,32.3,30.5,29.86,NNW,346,0.0,0.0,93,0.00,CLR,,0.00,WeatherDisplay:10.37,2013-03-29 13:25:00,
2013-03-29 05:30:00,32.4,30.3,29.86,NNW,347,0.0,0.0,92,0.00,CLR,,0.00,WeatherDisplay:10.37,2013-03-29 13:30:00,
2013-03-29 05:35:00,32.4,30.3,29.86,NNW,347,0.0,0.0,92,0.00,CLR,,0.00,WeatherDisplay:10.37,2013-03-29 13:35:00,
2013-03-29 05:40:00,32.4,30.3,29.86,NNW,347,0.0,0.0,92,0.00,CLR,,0.00,WeatherDisplay:10.37,2013-03-29 13:40:00,
2013-03-29 05:45:00,32.4,30.3,29.86,NNW,347,0.0,0.0,92,0.00,CLR,,0.00,WeatherDisplay:10.37,2013-03-29 13:45:00,
2013-03-29 05:50:00,32.5,30.4,29.86,NNW,347,0.0,0.0,92,0.00,CLR,,0.00,WeatherDisplay:10.37,2013-03-29 13:50:00,
2013-03-29 05:55:00,32.7,30.4,29.85,NNW,347,0.0,0.0,91,0.00,CLR,,0.00,WeatherDisplay:10.37,2013-03-29 13:55:00,
2013-03-29 06:00:00,32.7,30.4,29.86,NNW,347,0.0,0.0,91,0.00,CLR,,0.00,WeatherDisplay:10.37,2013-03-29 14:00:00,
2013-03-29 06:05:00,32.8,30.5,29.85,NNW,347,0.0,0.0,91,0.00,CLR,,0.00,WeatherDisplay:10.37,2013-03-29 14:05:00,
2013-03-29 06:10:00,32.8,30.5,29.85,NNW,347,0.0,0.0,91,0.00,CLR,,0.00,WeatherDisplay:10.37,2013-03-29 14:10:00,
2013-03-29 06:15:00,32.8,30.5,29.85,NNW,347,0.0,0.0,91,0.00,CLR,,0.00,WeatherDisplay:10.37,2013-03-29 14:15:00,
2013-03-29 06:20:00,32.8,30.2,29.85,NNW,347,0.0,0.0,90,0.00,CLR,,0.00,WeatherDisplay:10.37,2013-03-29 14:20:00,
2013-03-29 06:25:00,32.9,30.3,29.85,NNW,347,0.0,0.0,90,0.00,CLR,,0.00,WeatherDisplay:10.37,2013-03-29 14:25:00,
2013-03-29 06:30:00,33.0,30.4,29.85,NNW,347,0.0,0.0,90,0.00,CLR,,0.00,WeatherDisplay:10.37,2013-03-29 14:30:00,
2013-03-29 06:35:00,33.2,30.3,29.85,NNW,347,0.0,0.0,89,0.00,CLR,,0.00,WeatherDisplay:10.37,2013-03-29 14:35:00,
2013-03-29 06:40:00,33.3,30.4,29.85,NNW,347,0.0,0.0,89,0.00,CLR,,0.00,WeatherDisplay:10.37,2013-03-29 14:40:00,
2013-03-29 06:45:00,33.4,30.2,29.85,NNW,347,0.0,0.0,88,0.00,CLR,,0.00,WeatherDisplay:10.37,2013-03-29 14:45:00,
2013-03-29 06:50:00,33.4,30.2,29.84,NNW,347,0.0,0.0,88,0.00,CLR,,0.00,WeatherDisplay:10.37,2013-03-29 14:50:00,
2013-03-29 06:55:00,33.4,30.2,29.84,NNW,347,0.0,0.0,88,0.00,CLR,,0.00,WeatherDisplay:10.37,2013-03-29 14:55:00,
2013-03-29 07:00:00,33.4,29.9,29.84,NNW,347,0.0,0.0,87,0.00,CLR,,0.00,WeatherDisplay:10.37,2013-03-29 15:00:00,
2013-03-29 07:05:00,33.5,30.3,29.84,NNW,347,0.0,0.0,88,0.00,CLR,,0.00,WeatherDisplay:10.37,2013-03-29 15:05:00,
2013-03-29 07:10:00,33.3,30.4,29.84,NNW,347,0.0,0.0,89,0.00,CLR,,0.00,WeatherDisplay:10.37,2013-03-29 15:10:00,
2013-03-29 07:15:00,33.3,30.1,29.84,NNW,347,0.0,0.0,88,0.00,CLR,,0.00,WeatherDisplay:10.37,2013-03-29 15:15:00,
2013-03-29 07:20:00,33.3,30.1,29.84,NNW,347,0.0,0.0,88,0.00,CLR,,0.00,WeatherDisplay:10.37,2013-03-29 15:20:00,
2013-03-29 07:25:00,33.1,30.2,29.84,NNW,347,0.0,0.0,89,0.00,CLR,,0.00,WeatherDisplay:10.37,2013-03-29 15:25:00,
2013-03-29 07:30:00,32.9,30.0,29.84,NNW,347,0.0,0.0,89,0.00,CLR,,0.00,WeatherDisplay:10.37,2013-03-29 15:30:00,
2013-03-29 07:35:00,33.1,30.2,29.84,NNW,347,0.0,0.0,89,0.00,CLR,,0.00,WeatherDisplay:10.37,2013-03-29 15:35:00,
2013-03-29 07:40:00,33.1,30.2,29.83,NNW,347,0.0,0.0,89,0.00,CLR,,0.00,WeatherDisplay:10.37,2013-03-29 15:40:00,
2013-03-29 07:45:00,33.1,30.5,29.83,NNW,347,0.0,0.0,90,0.00,CLR,,0.00,WeatherDisplay:10.37,2013-03-29 15:45:00,
2013-03-29 07:50:00,32.9,30.3,29.83,NNW,347,0.0,0.0,90,0.00,CLR,,0.00,WeatherDisplay:10.37,2013-03-29 15:50:00,
2013-03-29 07:55:00,32.8,30.2,29.83,NNW,347,0.0,0.0,90,0.00,CLR,,0.00,WeatherDisplay:10.37,2013-03-29 15:55:00,
2013-03-29 08:00:00,33.1,30.5,29.83,NNW,347,0.0,0.0,90,0.00,CLR,,0.00,WeatherDisplay:10.37,2013-03-29 16:00:00,
2013-03-29 08:05:00,33.2,30.6,29.83,NNW,347,0.0,0.0,90,0.00,CLR,,0.00,WeatherDisplay:10.37,2013-03-29 16:05:00,
2013-03-29 08:10:00,33.1,30.5,29.83,NNW,347,0.0,0.0,90,0.00,CLR,,0.00,WeatherDisplay:10.37,2013-03-29 16:10:00,
2013-03-29 08:15:00,33.1,30.5,29.83,NNW,347,0.0,0.0,90,0.00,CLR,,0.00,WeatherDisplay:10.37,2013-03-29 16:15:00,
2013-03-29 08:20:00,33.0,30.4,29.83,NNW,347,0.0,0.0,90,0.00,CLR,,0.00,WeatherDisplay:10.37,2013-03-29 16:20:00,
2013-03-29 08:25:00,33.0,30.4,29.83,NNW,347,0.0,0.0,90,0.00,CLR,,0.00,WeatherDisplay:10.37,2013-03-29 16:25:00,
2013-03-29 08:30:00,33.0,30.7,29.83,NNW,347,0.0,0.0,91,0.00,CLR,,0.00,WeatherDisplay:10.37,2013-03-29 16:30:00,
2013-03-29 08:35:00,33.0,30.7,29.83,NNW,347,0.0,0.0,91,0.00,CLR,,0.00,WeatherDisplay:10.37,2013-03-29 16:35:00,
2013-03-29 08:40:00,33.1,30.8,29.83,NNW,347,0.0,0.0,91,0.00,CLR,,0.00,WeatherDisplay:10.37,2013-03-29 16:40:00,
2013-03-29 08:45:00,33.1,30.8,29.83,NNW,347,0.0,0.0,91,0.00,CLR,,0.00,WeatherDisplay:10.37,2013-03-29 16:45:00,
2013-03-29 08:50:00,33.1,30.8,29.83,NNW,347,0.0,0.0,91,0.00,CLR,,0.00,WeatherDisplay:10.37,2013-03-29 16:50:00,
2013-03-29 08:55:00,33.2,30.9,29.83,NNW,347,0.0,0.0,91,0.00,CLR,,0.00,WeatherDisplay:10.37,2013-03-29 16:55:00,
2013-03-29 09:00:00,33.2,30.9,29.83,NNW,347,0.0,0.0,91,0.00,CLR,,0.00,WeatherDisplay:10.37,2013-03-29 17:00:00,
2013-03-29 09:05:00,33.2,30.9,29.83,NNW,347,0.0,0.0,91,0.00,CLR,,0.00,WeatherDisplay:10.37,2013-03-29 17:05:00,
2013-03-29 09:10:00,33.3,31.0,29.83,NNW,347,0.0,0.0,91,0.00,CLR,,0.00,WeatherDisplay:10.37,2013-03-29 17:10:00,
2013-03-29 09:15:00,33.3,30.7,29.83,NNW,348,0.0,0.0,90,0.00,CLR,,0.00,WeatherDisplay:10.37,2013-03-29 17:15:00,
2013-03-29 09:20:00,33.4,30.8,29.83,NNW,348,0.0,0.0,90,0.00,CLR,,0.00,WeatherDisplay:10.37,2013-03-29 17:20:00,
2013-03-29 09:25:00,33.5,30.9,29.83,NNW,348,0.0,0.0,90,0.00,CLR,,0.00,WeatherDisplay:10.37,2013-03-29 17:25:00,
2013-03-29 09:30:00,33.5,30.9,29.83,NNW,348,0.0,0.0,90,0.00,CLR,,0.00,WeatherDisplay:10.37,2013-03-29 17:30:00,
2013-03-29 09:35:00,33.5,30.9,29.83,NNW,348,0.0,0.0,90,0.00,CLR,,0.00,WeatherDisplay:10.37,2013-03-29 17:35:00,
2013-03-29 09:40:00,33.6,31.0,29.83,NNW,348,0.0,0.0,90,0.00,CLR,,0.00,WeatherDisplay:10.37,2013-03-29 17:40:00,
2013-03-29 09:45:00,33.7,31.1,29.82,NNW,348,0.0,0.0,90,0.00,CLR,,0.00,WeatherDisplay:10.37,2013-03-29 17:45:00,
2013-03-29 09:50:00,33.7,30.8,29.83,NNW,348,0.0,0.0,89,0.00,CLR,,0.00,WeatherDisplay:10.37,2013-03-29 17:50:00,
2013-03-29 09:55:00,33.8,30.9,29.83,NNW,348,0.0,0.0,89,0.00,CLR,,0.00,WeatherDisplay:10.37,2013-03-29 17:55:00,
2013-03-29 10:00:00,33.9,31.0,29.82,NNW,348,0.0,0.0,89,0.00,CLR,,0.00,WeatherDisplay:10.37,2013-03-29 18:00:00,
2013-03-29 10:05:00,34.0,31.1,29.83,NNW,348,0.0,0.0,89,0.00,CLR,,0.00,WeatherDisplay:10.37,2013-03-29 18:05:00,
2013-03-29 10:10:00,34.1,31.2,29.83,NNW,348,0.0,0.0,89,0.00,CLR,,0.00,WeatherDisplay:10.37,2013-03-29 18:10:00,
2013-03-29 10:15:00,34.2,31.3,29.83,NNW,348,0.0,0.0,89,0.00,CLR,,0.00,WeatherDisplay:10.37,2013-03-29 18:15:00,
2013-03-29 10:20:00,34.3,31.4,29.83,NNW,348,0.0,0.0,89,0.00,CLR,,0.00,WeatherDisplay:10.37,2013-03-29 18:20:00,
2013-03-29 10:25:00,34.3,31.4,29.83,NNW,348,0.0,0.0,89,0.00,CLR,,0.00,WeatherDisplay:10.37,2013-03-29 18:25:00,
2013-03-29 10:30:00,34.4,31.5,29.83,NNW,348,0.0,0.0,89,0.00,CLR,,0.00,WeatherDisplay:10.37,2013-03-29 18:30:00,
2013-03-29 10:35:00,34.4,31.5,29.83,NNW,348,0.0,0.0,89,0.00,CLR,,0.00,WeatherDisplay:10.37,2013-03-29 18:35:00,
2013-03-29 10:40:00,34.4,31.5,29.83,NNW,348,0.0,0.0,89,0.00,CLR,,0.00,WeatherDisplay:10.37,2013-03-29 18:40:00,
2013-03-29 10:45:00,34.4,31.5,29.83,NNW,348,0.0,0.0,89,0.00,CLR,,0.00,WeatherDisplay:10.37,2013-03-29 18:45:00,
2013-03-29 10:50:00,34.4,31.2,29.83,NNW,348,0.0,0.0,88,0.00,CLR,,0.00,WeatherDisplay:10.37,2013-03-29 18:50:00,
2013-03-29 10:55:00,34.4,31.5,29.83,NNW,348,0.0,0.0,89,0.00,CLR,,0.00,WeatherDisplay:10.37,2013-03-29 18:55:00,
2013-03-29 11:00:00,34.4,31.5,29.83,NNW,348,0.0,0.0,89,0.00,CLR,,0.00,WeatherDisplay:10.37,2013-03-29 19:00:00,
2013-03-29 11:05:00,34.4,31.5,29.83,NNW,348,0.0,0.0,89,0.00,CLR,,0.00,WeatherDisplay:10.37,2013-03-29 19:05:00,
2013-03-29 11:10:00,34.4,31.5,29.83,NNW,348,0.0,0.0,89,0.00,CLR,,0.00,WeatherDisplay:10.37,2013-03-29 19:10:00,
2013-03-29 11:15:00,34.4,31.5,29.83,NNW,348,0.0,0.0,89,0.00,CLR,,0.00,WeatherDisplay:10.37,2013-03-29 19:15:00,
2013-03-29 11:20:00,34.4,31.5,29.83,NNW,348,0.0,0.0,89,0.00,CLR,,0.00,WeatherDisplay:10.37,2013-03-29 19:20:00,
2013-03-29 11:25:00,34.6,31.7,29.83,NNW,348,0.0,0.0,89,0.00,CLR,,0.00,WeatherDisplay:10.37,2013-03-29 19:25:00,
2013-03-29 11:30:00,34.7,31.5,29.83,NNW,348,0.0,0.0,88,0.00,CLR,,0.00,WeatherDisplay:10.37,2013-03-29 19:30:00,
2013-03-29 11:35:00,34.8,31.6,29.83,NNW,347,0.0,0.0,88,0.00,CLR,,0.00,WeatherDisplay:10.37,2013-03-29 19:35:00,
2013-03-29 11:40:00,35.0,31.8,29.83,NNW,347,0.0,0.0,88,0.00,CLR,,0.00,WeatherDisplay:10.37,2013-03-29 19:40:00,
2013-03-29 11:45:00,35.1,31.9,29.83,NNW,347,0.0,0.0,88,0.00,CLR,,0.00,WeatherDisplay:10.37,2013-03-29 19:45:00,
2013-03-29 11:50:00,35.0,31.8,29.83,NNW,347,0.0,0.0,88,0.00,CLR,,0.00,WeatherDisplay:10.37,2013-03-29 19:50:00,
2013-03-29 11:55:00,35.1,31.6,29.83,NNW,347,0.0,0.0,87,0.00,CLR,,0.00,WeatherDisplay:10.37,2013-03-29 19:55:00,
2013-03-29 12:00:00,35.2,32.0,29.83,NNW,347,0.0,0.0,88,0.00,CLR,,0.00,WeatherDisplay:10.37,2013-03-29 20:00:00,
2013-03-29 12:05:00,35.3,32.1,29.83,NNW,347,0.0,0.0,88,0.00,CLR,,0.00,WeatherDisplay:10.37,2013-03-29 20:05:00,
2013-03-29 12:10:00,35.3,32.1,29.83,NNW,347,0.0,0.0,88,0.00,CLR,,0.00,WeatherDisplay:10.37,2013-03-29 20:10:00,
2013-03-29 12:15:00,35.3,32.1,29.83,NNW,347,0.0,0.0,88,0.00,CLR,,0.00,WeatherDisplay:10.37,2013-03-29 20:15:00,
2013-03-29 12:20:00,35.4,32.2,29.84,NNW,347,0.0,0.0,88,0.00,CLR,,0.00,WeatherDisplay:10.37,2013-03-29 20:20:00,
2013-03-29 12:25:00,35.5,32.3,29.83,NNW,347,0.0,0.0,88,0.00,CLR,,0.00,WeatherDisplay:10.37,2013-03-29 20:25:00,
2013-03-29 12:30:00,35.5,32.0,29.83,NNW,347,0.0,0.0,87,0.00,CLR,,0.00,WeatherDisplay:10.37,2013-03-29 20:30:00,
2013-03-29 12:35:00,35.7,32.5,29.83,NNW,347,0.0,0.0,88,0.00,CLR,,0.00,WeatherDisplay:10.37,2013-03-29 20:35:00,
2013-03-29 12:40:00,35.8,32.3,29.84,NNW,347,0.0,0.0,87,0.01,RA,,0.01,WeatherDisplay:10.37,2013-03-29 20:40:00,
2013-03-29 12:45:00,36.0,32.8,29.83,NNW,347,0.0,0.0,88,0.01,RA,,0.01,WeatherDisplay:10.37,2013-03-29 20:45:00,
2013-03-29 12:50:00,36.2,32.7,29.84,NNW,347,0.0,0.0,87,0.01,,,0.01,WeatherDisplay:10.37,2013-03-29 20:50:00,
2013-03-29 12:55:00,36.2,32.1,29.83,NNW,347,0.0,0.0,85,0.01,CLR,,0.01,WeatherDisplay:10.37,2013-03-29 20:55:00,
2013-03-29 13:00:00,36.3,32.8,29.83,NNW,347,0.0,0.0,87,0.02,RA,,0.02,WeatherDisplay:10.37,2013-03-29 21:00:00,
2013-03-29 13:05:00,36.4,32.6,29.84,NNW,347,0.0,0.0,86,0.02,RA,,0.02,WeatherDisplay:10.37,2013-03-29 21:05:00,
2013-03-29 13:10:00,36.5,33.6,29.83,NNW,347,0.0,0.0,89,0.03,RA,,0.03,WeatherDisplay:10.37,2013-03-29 21:10:00,
2013-03-29 13:15:00,36.4,31.4,29.83,NNW,347,0.0,0.0,82,0.03,RA,,0.03,WeatherDisplay:10.37,2013-03-29 21:15:00,
2013-03-29 13:20:00,36.5,31.8,29.83,NNW,347,0.0,0.0,83,0.04,RA,,0.05,WeatherDisplay:10.37,2013-03-29 21:20:00,
2013-03-29 13:25:00,36.7,32.3,29.83,NNW,347,0.0,0.0,84,0.06,RA,,0.06,WeatherDisplay:10.37,2013-03-29 21:25:00,
2013-03-29 13:30:00,36.6,31.3,29.83,NNW,347,0.0,0.0,81,0.06,RA,,0.07,WeatherDisplay:10.37,2013-03-29 21:30:00,
2013-03-29 13:35:00,36.7,31.7,29.83,NNW,346,0.0,0.0,82,0.07,RA,,0.07,WeatherDisplay:10.37,2013-03-29 21:35:00,
2013-03-29 13:40:00,37.0,32.6,29.83,NNW,345,0.0,0.0,84,0.07,RA,,0.08,WeatherDisplay:10.37,2013-03-29 21:40:00,
2013-03-29 13:45:00,37.3,32.0,29.83,NNW,345,0.0,0.0,81,0.08,RA,,0.09,WeatherDisplay:10.37,2013-03-29 21:45:00,
2013-03-29 13:50:00,37.4,32.4,29.83,NNW,346,0.0,0.0,82,0.09,RA,,0.10,WeatherDisplay:10.37,2013-03-29 21:50:00,
2013-03-29 13:55:00,37.5,32.2,29.83,NNW,346,0.0,0.0,81,0.10,RA,,0.11,WeatherDisplay:10.37,2013-03-29 21:55:00,
2013-03-29 14:00:00,37.5,31.9,29.83,NNW,346,0.0,0.0,80,0.10,RA,,0.12,WeatherDisplay:10.37,2013-03-29 22:00:00,
2013-03-29 14:05:00,37.5,31.6,29.83,NNW,346,0.0,0.0,79,0.11,RA,,0.13,WeatherDisplay:10.37,2013-03-29 22:05:00,
2013-03-29 14:10:00,37.7,31.5,29.83,NNW,346,0.0,0.0,78,0.11,RA,,0.14,WeatherDisplay:10.37,2013-03-29 22:10:00,
2013-03-29 14:15:00,37.7,31.5,29.83,NNW,345,0.0,0.0,78,0.12,RA,,0.15,WeatherDisplay:10.37,2013-03-29 22:15:00,
2013-03-29 14:20:00,37.8,31.2,29.83,NNW,345,0.0,0.0,77,0.12,RA,,0.16,WeatherDisplay:10.37,2013-03-29 22:20:00,
2013-03-29 14:25:00,38.0,31.4,29.83,NNW,346,0.0,0.0,77,0.11,RA,,0.17,WeatherDisplay:10.37,2013-03-29 22:25:00,
2013-03-29 14:30:00,38.1,31.2,29.83,NNW,346,0.0,0.0,76,0.12,RA,,0.18,WeatherDisplay:10.37,2013-03-29 22:30:00,
2013-03-29 14:35:00,38.2,31.3,29.83,NNW,346,0.0,0.0,76,0.12,RA,,0.19,WeatherDisplay:10.37,2013-03-29 22:35:00,
2013-03-29 14:40:00,38.0,31.1,29.83,NNW,345,0.0,0.0,76,0.12,RA,,0.20,WeatherDisplay:10.37,2013-03-29 22:40:00,
2013-03-29 14:45:00,38.0,30.8,29.83,NNW,346,0.0,0.0,75,0.12,RA,,0.21,WeatherDisplay:10.37,2013-03-29 22:45:00,
2013-03-29 14:50:00,38.0,30.8,29.83,NNW,345,0.0,0.0,75,0.12,RA,,0.22,WeatherDisplay:10.37,2013-03-29 22:50:00,
2013-03-29 14:55:00,38.0,31.1,29.83,NNW,345,0.0,0.0,76,0.12,RA,,0.23,WeatherDisplay:10.37,2013-03-29 22:55:00,
2013-03-29 15:00:00,38.2,31.3,29.83,NNW,345,0.0,0.0,76,0.11,RA,,0.24,WeatherDisplay:10.37,2013-03-29 23:00:00,
2013-03-29 15:05:00,38.4,30.8,29.83,NNW,345,0.0,0.0,74,0.11,RA,,0.24,WeatherDisplay:10.37,2013-03-29 23:05:00,
2013-03-29 15:10:00,38.5,30.9,29.82,NNW,345,0.0,0.0,74,0.11,RA,,0.25,WeatherDisplay:10.37,2013-03-29 23:10:00,
2013-03-29 15:15:00,38.6,31.4,29.83,NNW,345,0.0,0.0,75,0.11,RA,,0.26,WeatherDisplay:10.37,2013-03-29 23:15:00,
2013-03-29 15:20:00,38.6,30.7,29.83,NNW,345,0.0,0.0,73,0.11,RA,,0.27,WeatherDisplay:10.37,2013-03-29 23:20:00,
2013-03-29 15:25:00,38.6,31.0,29.82,NNW,345,0.0,0.0,74,0.11,RA,,0.28,WeatherDisplay:10.37,2013-03-29 23:25:00,
2013-03-29 15:30:00,38.6,31.7,29.82,NNW,346,0.0,0.0,76,0.11,RA,,0.29,WeatherDisplay:10.37,2013-03-29 23:30:00,
2013-03-29 15:35:00,38.6,30.7,29.82,NNW,345,0.0,0.0,73,0.11,RA,,0.30,WeatherDisplay:10.37,2013-03-29 23:35:00,
2013-03-29 15:40:00,38.4,30.5,29.82,NNW,345,0.0,0.0,73,0.10,RA,,0.30,WeatherDisplay:10.37,2013-03-29 23:40:00,
2013-03-29 15:45:00,38.4,31.5,29.82,NNW,345,0.0,0.0,76,0.10,RA,,0.31,WeatherDisplay:10.37,2013-03-29 23:45:00,
2013-03-29 15:50:00,38.4,30.5,29.82,NNW,345,0.0,0.0,73,0.10,RA,,0.32,WeatherDisplay:10.37,2013-03-29 23:50:00,
2013-03-29 15:55:00,38.6,30.7,29.82,NNW,345,0.0,0.0,73,0.09,RA,,0.32,WeatherDisplay:10.37,2013-03-29 23:55:00,
2013-03-29 16:00:00,38.7,30.4,29.82,NNW,345,0.0,0.0,72,0.10,RA,,0.33,WeatherDisplay:10.37,2013-03-30 00:00:00,
2013-03-29 16:05:00,38.7,30.8,29.82,NNW,345,0.0,0.0,73,0.10,RA,,0.34,WeatherDisplay:10.37,2013-03-30 00:05:00,
2013-03-29 16:10:00,38.8,30.5,29.82,NNW,343,0.0,0.0,72,0.09,RA,,0.34,WeatherDisplay:10.37,2013-03-30 00:10:00,
2013-03-29 16:15:00,38.8,30.9,29.82,NNW,343,0.0,0.0,73,0.09,RA,,0.35,WeatherDisplay:10.37,2013-03-30 00:15:00,
2013-03-29 16:20:00,38.9,30.6,29.82,NNW,343,0.0,0.0,72,0.08,RA,,0.35,WeatherDisplay:10.37,2013-03-30 00:20:00,
2013-03-29 16:25:00,39.1,30.5,29.82,NNW,343,0.0,0.0,71,0.08,RA,,0.36,WeatherDisplay:10.37,2013-03-30 00:25:00,
2013-03-29 16:30:00,39.2,30.2,29.82,NNW,343,0.0,0.0,70,0.07,RA,,0.36,WeatherDisplay:10.37,2013-03-30 00:30:00,
2013-03-29 16:35:00,39.4,30.4,29.82,NNW,343,0.0,0.0,70,0.07,RA,,0.37,WeatherDisplay:10.37,2013-03-30 00:35:00,
2013-03-29 16:40:00,39.4,30.1,29.82,NNW,343,0.0,0.0,69,0.07,RA,,0.38,WeatherDisplay:10.37,2013-03-30 00:40:00,
2013-03-29 16:45:00,39.5,30.2,29.82,NNW,343,0.0,0.0,69,0.07,RA,,0.38,WeatherDisplay:10.37,2013-03-30 00:45:00,
2013-03-29 16:50:00,39.5,30.2,29.82,NNW,343,0.0,0.0,69,0.07,RA,,0.39,WeatherDisplay:10.37,2013-03-30 00:50:00,
2013-03-29 16:55:00,39.6,29.9,29.82,NNW,343,0.0,0.0,68,0.07,RA,,0.39,WeatherDisplay:10.37,2013-03-30 00:55:00,
2013-03-29 17:00:00,39.6,29.5,29.82,NNW,343,0.0,0.0,67,0.06,,,0.39,WeatherDisplay:10.37,2013-03-30 01:00:00,
2013-03-29 17:05:00,39.6,29.9,29.82,NNW,343,0.0,0.0,68,0.06,RA,,0.40,WeatherDisplay:10.37,2013-03-30 01:05:00,
2013-03-29 17:10:00,39.7,29.6,29.82,NNW,343,0.0,0.0,67,0.06,RA,,0.40,WeatherDisplay:10.37,2013-03-30 01:10:00,
2013-03-29 17:15:00,39.7,29.6,29.82,NNW,343,0.0,0.0,67,0.06,RA,,0.41,WeatherDisplay:10.37,2013-03-30 01:15:00,
2013-03-29 17:20:00,39.6,29.9,29.82,NNW,343,0.0,0.0,68,0.06,RA,,0.41,WeatherDisplay:10.37,2013-03-30 01:20:00,
2013-03-29 17:25:00,39.6,29.2,29.82,NNW,343,0.0,0.0,66,0.05,,,0.41,WeatherDisplay:10.37,2013-03-30 01:25:00,
2013-03-29 17:30:00,39.6,29.2,29.82,NNW,343,0.0,0.0,66,0.05,CLR,,0.41,WeatherDisplay:10.37,2013-03-30 01:30:00,
2013-03-29 17:35:00,39.5,29.4,29.82,NNW,343,0.0,0.0,67,0.05,RA,,0.42,WeatherDisplay:10.37,2013-03-30 01:35:00,
2013-03-29 17:40:00,39.6,29.2,29.82,NNW,343,0.0,0.0,66,0.05,RA,,0.42,WeatherDisplay:10.37,2013-03-30 01:40:00,
2013-03-29 17:45:00,39.6,29.2,29.82,NNW,343,0.0,0.0,66,0.04,,,0.42,WeatherDisplay:10.37,2013-03-30 01:45:00,
2013-03-29 17:50:00,39.6,28.8,29.82,NNW,343,0.0,0.0,65,0.03,CLR,,0.42,WeatherDisplay:10.37,2013-03-30 01:50:00,
2013-03-29 17:55:00,39.7,28.9,29.82,NNW,343,0.0,0.0,65,0.03,CLR,,0.43,WeatherDisplay:10.37,2013-03-30 01:55:00,
2013-03-29 18:00:00,39.8,28.6,29.82,NNW,343,0.0,0.0,64,0.04,RA,,0.43,WeatherDisplay:10.37,2013-03-30 02:00:00,
2013-03-29 18:05:00,39.9,28.7,29.82,NNW,343,0.0,0.0,64,0.03,RA,,0.43,WeatherDisplay:10.37,2013-03-30 02:05:00,
2013-03-29 18:10:00,40.0,29.2,29.82,NNW,343,0.0,0.0,65,0.03,CLR,,0.43,WeatherDisplay:10.37,2013-03-30 02:10:00,
2013-03-29 18:15:00,40.1,28.9,29.82,NNW,343,0.0,0.0,64,0.02,CLR,,0.43,WeatherDisplay:10.37,2013-03-30 02:15:00,
2013-03-29 18:20:00,40.0,28.8,29.82,NNW,343,0.0,0.0,64,0.02,CLR,,0.43,WeatherDisplay:10.37,2013-03-30 02:20:00,
2013-03-29 18:25:00,39.9,28.7,29.82,NNW,343,0.0,0.0,64,0.03,RA,,0.44,WeatherDisplay:10.37,2013-03-30 02:25:00,
2013-03-29 18:30:00,39.8,28.2,29.82,NNW,343,0.0,0.0,63,0.03,RA,,0.44,WeatherDisplay:10.37,2013-03-30 02:30:00,
2013-03-29 18:35:00,39.7,28.1,29.82,NNW,343,0.0,0.0,63,0.02,CLR,,0.44,WeatherDisplay:10.37,2013-03-30 02:35:00,
2013-03-29 18:40:00,39.5,28.3,29.82,NNW,343,0.0,0.0,64,0.02,CLR,,0.44,WeatherDisplay:10.37,2013-03-30 02:40:00,
2013-03-29 18:45:00,39.5,28.3,29.83,NNW,343,0.0,0.0,64,0.02,CLR,,0.44,WeatherDisplay:10.37,2013-03-30 02:45:00,
2013-03-29 18:50:00,39.5,31.6,29.83,NNW,343,0.0,0.0,73,0.02,CLR,,0.44,WeatherDisplay:10.37,2013-03-30 02:50:00,
2013-03-29 18:55:00,39.3,32.4,29.83,NNW,343,0.0,0.0,76,0.02,CLR,,0.44,WeatherDisplay:10.37,2013-03-30 02:55:00,
2013-03-29 19:00:00,39.0,32.7,29.83,NNW,343,0.0,0.0,78,0.01,CLR,,0.44,WeatherDisplay:10.37,2013-03-30 03:00:00,
2013-03-29 19:05:00,38.7,31.8,29.83,NNW,343,0.0,0.0,76,0.02,RA,,0.45,WeatherDisplay:10.37,2013-03-30 03:05:00,
2013-03-29 19:10:00,38.4,32.8,29.83,NNW,343,0.0,0.0,80,0.02,RA,,0.45,WeatherDisplay:10.37,2013-03-30 03:10:00,
2013-03-29 19:15:00,38.2,32.9,29.83,NNW,343,0.0,0.0,81,0.02,CLR,,0.45,WeatherDisplay:10.37,2013-03-30 03:15:00,
2013-03-29 19:20:00,38.0,33.0,29.83,NNW,343,0.0,0.0,82,0.02,CLR,,0.45,WeatherDisplay:10.37,2013-03-30 03:20:00,
2013-03-29 19:25:00,37.5,32.2,29.83,NNW,343,0.0,0.0,81,0.01,CLR,,0.45,WeatherDisplay:10.37,2013-03-30 03:25:00,
2013-03-29 19:30:00,37.2,32.5,29.83,NNW,343,0.0,0.0,83,0.01,CLR,,0.45,WeatherDisplay:10.37,2013-03-30 03:30:00,
2013-03-29 19:35:00,36.9,32.5,29.84,NNW,343,0.0,0.0,84,0.01,CLR,,0.45,WeatherDisplay:10.37,2013-03-30 03:35:00,
2013-03-29 19:40:00,36.6,32.5,29.83,NNW,343,0.0,0.0,85,0.01,CLR,,0.45,WeatherDisplay:10.37,2013-03-30 03:40:00,
2013-03-29 19:45:00,36.4,32.3,29.84,NNW,343,0.0,0.0,85,0.01,CLR,,0.45,WeatherDisplay:10.37,2013-03-30 03:45:00,
2013-03-29 19:50:00,36.3,32.5,29.84,NNW,343,0.0,0.0,86,0.01,CLR,,0.45,WeatherDisplay:10.37,2013-03-30 03:50:00,
2013-03-29 19:55:00,36.2,32.4,29.84,NNW,343,0.0,0.0,86,0.01,CLR,,0.45,WeatherDisplay:10.37,2013-03-30 03:55:00,
2013-03-29 20:00:00,36.1,32.6,29.84,NNW,343,0.0,0.0,87,0.01,CLR,,0.45,WeatherDisplay:10.37,2013-03-30 04:00:00,
2013-03-29 20:05:00,36.0,32.5,29.84,NNW,343,0.0,0.0,87,0.00,CLR,,0.45,WeatherDisplay:10.37,2013-03-30 04:05:00,
2013-03-29 20:10:00,35.8,32.3,29.84,NNW,343,0.0,0.0,87,0.00,CLR,,0.45,WeatherDisplay:10.37,2013-03-30 04:10:00,
2013-03-29 20:15:00,35.6,32.4,29.85,NNW,343,0.0,0.0,88,0.00,CLR,,0.45,WeatherDisplay:10.37,2013-03-30 04:15:00,
2013-03-29 20:20:00,35.4,32.2,29.85,NNW,343,0.0,0.0,88,0.00,CLR,,0.45,WeatherDisplay:10.37,2013-03-30 04:20:00,
2013-03-29 20:25:00,35.2,32.0,29.85,NNW,343,0.0,0.0,88,0.00,CLR,,0.45,WeatherDisplay:10.37,2013-03-30 04:25:00,
2013-03-29 20:30:00,35.0,31.8,29.85,NNW,343,0.0,0.0,88,0.00,CLR,,0.45,WeatherDisplay:10.37,2013-03-30 04:30:00,
2013-03-29 20:35:00,34.9,32.0,29.85,NNW,343,0.0,0.0,89,0.00,CLR,,0.45,WeatherDisplay:10.37,2013-03-30 04:35:00,
2013-03-29 20:40:00,34.8,31.9,29.85,NNW,343,0.0,0.0,89,0.00,CLR,,0.45,WeatherDisplay:10.37,2013-03-30 04:40:00,
2013-03-29 20:45:00,34.6,31.7,29.85,NNW,343,0.0,0.0,89,0.00,CLR,,0.45,WeatherDisplay:10.37,2013-03-30 04:45:00,
2013-03-29 20:50:00,34.4,31.5,29.86,NNW,343,0.0,0.0,89,0.00,CLR,,0.45,WeatherDisplay:10.37,2013-03-30 04:50:00,
2013-03-29 20:55:00,34.4,31.5,29.86,NNW,343,0.0,0.0,89,0.00,CLR,,0.45,WeatherDisplay:10.37,2013-03-30 04:55:00,
2013-03-29 21:00:00,34.3,31.7,29.86,NNW,343,0.0,0.0,90,0.00,CLR,,0.45,WeatherDisplay:10.37,2013-03-30 05:00:00,
2013-03-29 21:05:00,34.1,31.5,29.86,NNW,343,0.0,0.0,90,0.00,CLR,,0.45,WeatherDisplay:10.37,2013-03-30 05:05:00,
2013-03-29 21:10:00,33.9,31.3,29.86,NNW,343,0.0,0.0,90,0.00,CLR,,0.45,WeatherDisplay:10.37,2013-03-30 05:10:00,
2013-03-29 21:15:00,33.8,31.2,29.87,NNW,343,0.0,0.0,90,0.00,CLR,,0.45,WeatherDisplay:10.37,2013-03-30 05:15:00,
2013-03-29 21:20:00,33.6,31.0,29.87,NNW,343,0.0,0.0,90,0.00,CLR,,0.45,WeatherDisplay:10.37,2013-03-30 05:20:00,
2013-03-29 21:25:00,33.4,30.8,29.88,NNW,343,0.0,0.0,90,0.00,CLR,,0.45,WeatherDisplay:10.37,2013-03-30 05:25:00,
2013-03-29 21:30:00,33.4,31.1,29.88,NNW,343,0.0,0.0,91,0.00,CLR,,0.45,WeatherDisplay:10.37,2013-03-30 05:30:00,
2013-03-29 21:35:00,33.5,31.2,29.88,NNW,343,0.0,0.0,91,0.00,CLR,,0.45,WeatherDisplay:10.37,2013-03-30 05:35:00,
2013-03-29 21:40:00,33.4,31.1,29.88,NNW,343,0.0,0.0,91,0.00,CLR,,0.45,WeatherDisplay:10.37,2013-03-30 05:40:00,
2013-03-29 21:45:00,33.4,31.1,29.88,NNW,343,0.0,0.0,91,0.00,CLR,,0.45,WeatherDisplay:10.37,2013-03-30 05:45:00,
2013-03-29 21:50:00,33.4,31.1,29.88,NNW,343,0.0,0.0,91,0.00,CLR,,0.45,WeatherDisplay:10.37,2013-03-30 05:50:00,
2013-03-29 21:55:00,33.3,31.0,29.88,NNW,343,0.0,0.0,91,0.00,CLR,,0.45,WeatherDisplay:10.37,2013-03-30 05:55:00,
2013-03-29 22:00:00,33.2,30.9,29.89,NNW,343,0.0,0.0,91,0.00,CLR,,0.45,WeatherDisplay:10.37,2013-03-30 06:00:00,
2013-03-29 22:05:00,33.3,31.2,29.89,NNW,343,0.0,0.0,92,0.00,CLR,,0.45,WeatherDisplay:10.37,2013-03-30 06:05:00,
2013-03-29 22:10:00,33.5,31.4,29.89,NNW,343,0.0,0.0,92,0.00,CLR,,0.45,WeatherDisplay:10.37,2013-03-30 06:10:00,
2013-03-29 22:15:00,33.6,31.5,29.89,NNW,343,0.0,0.0,92,0.00,CLR,,0.45,WeatherDisplay:10.37,2013-03-30 06:15:00,
2013-03-29 22:20:00,33.5,31.4,29.90,NNW,343,0.0,0.0,92,0.00,CLR,,0.45,WeatherDisplay:10.37,2013-03-30 06:20:00,
2013-03-29 22:25:00,33.4,31.3,29.90,NNW,343,0.0,0.0,92,0.00,CLR,,0.45,WeatherDisplay:10.37,2013-03-30 06:25:00,
2013-03-29 22:30:00,33.3,31.2,29.90,NNW,343,0.0,0.0,92,0.00,CLR,,0.45,WeatherDisplay:10.37,2013-03-30 06:30:00,
2013-03-29 22:35:00,33.3,31.2,29.90,NNW,343,0.0,0.0,92,0.00,CLR,,0.45,WeatherDisplay:10.37,2013-03-30 06:35:00,
2013-03-29 22:40:00,33.3,31.2,29.91,NNW,343,0.0,0.0,92,0.00,CLR,,0.45,WeatherDisplay:10.37,2013-03-30 06:40:00,
2013-03-29 22:45:00,33.2,31.1,29.91,NNW,343,0.0,0.0,92,0.00,CLR,,0.45,WeatherDisplay:10.37,2013-03-30 06:45:00,
2013-03-29 22:50:00,33.0,30.9,29.91,NNW,343,0.0,0.0,92,0.00,CLR,,0.45,WeatherDisplay:10.37,2013-03-30 06:50:00,
2013-03-29 22:55:00,32.9,30.8,29.91,NNW,343,0.0,0.0,92,0.00,CLR,,0.45,WeatherDisplay:10.37,2013-03-30 06:55:00,
2013-03-29 23:00:00,32.9,30.8,29.91,NNW,343,0.0,0.0,92,0.00,CLR,,0.45,WeatherDisplay:10.37,2013-03-30 07:00:00,
2013-03-29 23:05:00,33.0,31.2,29.92,NNW,343,0.0,0.0,93,0.00,CLR,,0.45,WeatherDisplay:10.37,2013-03-30 07:05:00,
2013-03-29 23:10:00,32.9,30.8,29.92,NNW,343,0.0,0.0,92,0.00,CLR,,0.45,WeatherDisplay:10.37,2013-03-30 07:10:00,
2013-03-29 23:15:00,33.0,31.2,29.92,NNW,343,0.0,0.0,93,0.00,CLR,,0.45,WeatherDisplay:10.37,2013-03-30 07:15:00,
2013-03-29 23:20:00,32.9,31.1,29.92,NNW,343,0.0,0.0,93,0.00,CLR,,0.45,WeatherDisplay:10.37,2013-03-30 07:20:00,
2013-03-29 23:25:00,32.8,30.7,29.92,NNW,343,0.0,0.0,92,0.00,CLR,,0.45,WeatherDisplay:10.37,2013-03-30 07:25:00,
2013-03-29 23:30:00,32.8,31.0,29.92,NNW,343,0.0,0.0,93,0.00,CLR,,0.45,WeatherDisplay:10.37,2013-03-30 07:30:00,
2013-03-29 23:35:00,32.7,30.9,29.92,NNW,343,0.0,0.0,93,0.00,CLR,,0.45,WeatherDisplay:10.37,2013-03-30 07:35:00,
2013-03-29 23:40:00,32.7,30.9,29.93,NNW,343,0.0,0.0,93,0.00,CLR,,0.45,WeatherDisplay:10.37,2013-03-30 07:40:00,
2013-03-29 23:45:00,32.6,30.8,29.93,NNW,343,0.0,0.0,93,0.00,CLR,,0.45,WeatherDisplay:10.37,2013-03-30 07:45:00,
2013-03-29 23:50:00,32.4,30.6,29.93,NNW,343,0.0,0.0,93,0.00,CLR,,0.45,WeatherDisplay:10.37,2013-03-30 07:50:00,
2013-03-29 23:55:00,32.4,30.6,29.93,NNW,343,0.0,0.0,93,0.00,CLR,,0.45,WeatherDisplay:10.37,2013-03-30 07:55:00,